Content
SEND FEEDBACK

Daily
Averages
Monthly
Summary
United States of America

WRIGHTSBORO, NORTH CAROLINA


Home > North America > United States > North Carolina
Elevation: 30 feet     Latitude: 34 18N     Longitude: 077 54W

WEATHER
 
SELECT A DAY
Number of Records: 212,380;   Date Range: 1/1/95 - 10/24/14
 
SHARE

PRINT THIS DATA

[ ← Previous Day ]
WEATHER ALMANAC - JANUARY 23, 2013
[ Next Day → ]
[ °C ]   °F
Weather ElementAverageHighLow
Temperature34.3 °F44.1 °F (3:53 pm)26.1 °F (6:53 am)
Dewpoint13 °F26.1 °F (11:53 pm)3.9 °F (9:53 am)
Humidity44 %75 % (11:53 pm)23 % (12:53 pm)
Barometer30.29 in30.39 in (9:53 am)30.14 in (11:53 pm)
Wind Speed5.7 mph11.5 mph (2:53 am)
Weather ElementAverage
Visibility10 mi
Wind DirectionENE (71.3 °)

Weather ElementTotal
Precipitation---
Heating Degree Days29.9 (Base 65)
Averaged from 23 records on January 23, 2013
WEATHER CONDITIONS BREAKOUT
WIND DIRECTION BREAKOUT
WEATHER BY HOUR - JANUARY 23, 2013
[ °C ]   °F
Local TimeTemperatureDewpointHumidityBarometerVisibilityWind DirectionWind SpeedGust SpeedPrecipitationEventsConditions
1:53 AM28.9 °F14.0 °F54 %30.27 in10.0 miNNE (30°)9.2 mphClear
2:53 AM28.9 °F9.0 °F43 %30.30 in10.0 miNNE (30°)11.5 mphClear
3:53 AM27.0 °F10.0 °F49 %30.30 in10.0 miNE (40°)8.1 mphClear
4:53 AM27.0 °F9.0 °F47 %30.30 in10.0 miNNE (30°)8.1 mphClear
5:53 AM27.0 °F9.0 °F47 %30.32 in10.0 miNNE (30°)9.2 mphClear
6:53 AM26.1 °F8.1 °F47 %30.34 in10.0 miNNE (30°)8.1 mphClear
7:53 AM27.0 °F9.0 °F47 %30.36 in10.0 miNE (40°)5.8 mphClear
8:53 AM30.0 °F7.0 °F38 %30.38 in10.0 miNE (40°)9.2 mphClear
9:53 AM33.1 °F3.9 °F29 %30.39 in10.0 miNNE (30°)11.5 mph
10:53 AM37.0 °F3.9 °F25 %30.38 in10.0 miVariable5.8 mphClear
11:53 AM39.0 °F5.0 °F24 %30.36 in10.0 miNE (50°)3.5 mphClear
12:53 PM42.1 °F6.1 °F23 %30.32 in10.0 miCalmClear
1:53 PM43.0 °F8.1 °F24 %30.30 in10.0 miVariable4.6 mphClear
2:53 PM43.0 °F10.9 °F27 %30.26 in10.0 miSW (230°)6.9 mphClear
3:53 PM44.1 °F12.0 °F27 %30.26 in10.0 miWSW (250°)8.1 mphClear
4:53 PM41.0 °F17.1 °F38 %30.26 in10.0 miSSE (160°)6.9 mphClear
5:53 PM37.0 °F19.0 °F48 %30.26 in10.0 miSouth (170°)4.6 mphClear
6:53 PM36.0 °F19.9 °F52 %30.26 in10.0 miSSE (150°)3.5 mphClear
7:53 PM35.1 °F21.9 °F59 %30.24 in10.0 miSSE (160°)3.5 mphClear
8:53 PM34.0 °F23.0 °F64 %30.22 in10.0 miCalmClear
9:53 PM35.1 °F21.9 °F59 %30.20 in10.0 miSouth (170°)3.5 mphClear
10:53 PM34.0 °F24.1 °F67 %30.18 in10.0 miCalmClear
11:53 PM33.1 °F26.1 °F75 %30.14 in10.0 miCalmClear
Hourly data recorded from KILM, located miles away from Wrightsboro, North Carolina







STORIES FROM OUR PARTNERS